Regional Weather Roundup
Issued by NWS Albany, NY

Home | Current Version | Previous Version | Text Only | Print | Product List | Glossary On
Versions: 1 2 3 4 5 6 7 8 9 10 11 12 13 14 15 16 17 18 19 20 21 22 23 24 25 26 27 28 29 30 31 32 33 34 35 36 37 38 39 40 41 42 43 44 45 46 47 48 49 50
000
ASUS41 KALY 301210
RWRALY

NEW YORK STATE HOURLY WEATHER ROUNDUP
NATIONAL WEATHER SERVICE ALBANY NY
800 AM EDT SAT APR 30 2016

NOTE: "FAIR" INDICATES FEW OR NO CLOUDS BELOW 12,000 FEET WITH NO
SIGNIFICANT WEATHER AND/OR NO OBSTRUCTIONS TO VISIBILITY.

NYZ032-033-038>043-046>054-057>066-NYZ062>081-082-084-301300-
EAST


CITY           SKY/WX    TMP DP  RH WIND       PRES   REMARKS
ALBANY         CLOUDY    47  39  74 CALM      30.24R
GLENS FALLS    SUNNY     46  23  40 CALM      30.24R
POUGHKEEPSIE   PTSUNNY   48  43  82 CALM      30.22R
MONTGOMERY     CLOUDY    46  43  89 W6        30.21R
WHITE PLAINS   PTSUNNY   46  41  82 CALM      30.21R
ISLIP          CLOUDY    48  40  73 N7        30.21R
NEW YORK CITY  CLOUDY    49  39  68 NE6       30.21S
CENTRAL PARK   CLOUDY    49  38  65 NE8       30.24S
$$

NYZ005>009-017-018-044>046-055-056-301300-
CENTRAL


CITY           SKY/WX    TMP DP  RH WIND       PRES   REMARKS
FULTON         SUNNY     48  40  73 CALM      30.21R
SYRACUSE       MOSUNNY   48  43  82 W3        30.20R
ROME           CLOUDY    44  41  89 E3        30.24R
ELMIRA         CLOUDY    44  41  89 CALM      30.20R FOG
BINGHAMTON     CLOUDY    40  39  97 NE3       30.17F
MONTICELLO     SUNNY     41  39  93 CALM      30.21R
$$

NYZ026>034-041>043-087-301300-
NORTH


CITY           SKY/WX    TMP DP  RH WIND       PRES   REMARKS
WATERTOWN      SUNNY     43  27  53 E6        30.22S
FORT DRUM      NOT AVBL
MASSENA        SUNNY     43  25  49 NE8       30.28R
SARANAC LAKE   SUNNY     40  15  36 CALM      30.20R
PLATTSBURGH    SUNNY     44  17  33 N10       30.25R
$$

NYZ001>004-010>016-019>021-085-301300-
WEST


CITY           SKY/WX    TMP DP  RH WIND       PRES   REMARKS
NIAGARA FALLS  PTSUNNY   47  38  71 E6        30.19R
BUFFALO        MOSUNNY   47  40  76 NE7       30.19R
DUNKIRK        MOSUNNY   45  42  89 CALM      30.19R
JAMESTOWN      PTSUNNY   43  39  87 E6        30.15S
WELLSVILLE     FOG       40  39  97 SE5       30.18R VSB 1/4
ROCHESTER      MOSUNNY   47  35  63 NE6       30.21S
PENN YAN       CLOUDY    46  43  89 CALM      30.20S FOG
$$

             KEY
       WCI = WIND CHILL INDEX
       VSB = VISIBILITY
       HX  = HEAT INDEX
$$



USA.gov is the U.S. government's official web portal to all federal, state and local government web resources and services.